| time (UTC) | temp F | wind direction | speed knots | gust knots | rain 1hr in | rain 24hr in | rain mn in | humidity % | barometer mb |
| 20260510023003 | 45 | 146 | 0.0 | 2.6 | 0.00 | 0.30 | 0.30 | 93 | 1010.8 |
| 20260510021502 | 45 | 148 | 0.0 | 0.0 | 0.00 | 0.30 | 0.30 | 93 | 1010.7 |
| 20260510020002 | 45 | 148 | 0.0 | 0.0 | 0.00 | 0.30 | 0.30 | 93 | 1011.1 |
| 20260510014502 | 45 | 148 | 0.0 | 0.0 | 0.00 | 0.30 | 0.30 | 93 | 1011.0 |
| 20260510013001 | 45 | 148 | 0.0 | 0.0 | 0.00 | 0.30 | 0.30 | 93 | 1011.0 |
| 20260510011503 | 45 | 148 | 0.0 | 0.9 | 0.00 | 0.30 | 0.30 | 93 | 1011.0 |
| 20260510010100 | 45 | 149 | 0.0 | 2.6 | 0.00 | 0.30 | 0.30 | 93 | 1011.0 |
| 20260510004600 | 44 | 117 | 0.0 | 1.7 | 0.00 | 0.30 | 0.30 | 93 | 1010.8 |
| 20260510003107 | 44 | 162 | 0.0 | 0.0 | 0.00 | 0.30 | 0.30 | 93 | 1010.8 |
| 20260510001600 | 44 | 162 | 0.0 | 0.0 | 0.00 | 0.30 | 0.30 | 93 | 1010.6 |
| 20260510000127 | 44 | 163 | 0.0 | 0.0 | 0.00 | 0.30 | 0.30 | 93 | 1010.5 |
| 20260509234558 | 44 | 153 | 0.0 | 0.0 | 0.00 | 0.30 | 0.30 | 93 | 1010.3 |
| 20260509233059 | 44 | 117 | 0.0 | 2.6 | 0.00 | 0.30 | 0.30 | 93 | 1010.2 |
| 20260509231614 | 44 | 104 | 0.0 | 4.3 | 0.00 | 0.30 | 0.30 | 93 | 1010.1 |
| 20260509230105 | 44 | 130 | 0.0 | 3.5 | 0.00 | 0.30 | 0.30 | 93 | 1010.2 |
| 20260509224556 | 44 | 175 | 0.0 | 2.6 | 0.00 | 0.30 | 0.30 | 93 | 1010.2 |
| 20260509223104 | 44 | 148 | 0.0 | 2.6 | 0.00 | 0.30 | 0.30 | 93 | 1010.2 |
| 20260509221607 | 44 | 107 | 0.0 | 0.0 | 0.00 | 0.30 | 0.30 | 93 | 1010.4 |
| 20260509220054 | 44 | 128 | 0.0 | 4.3 | 0.00 | 0.30 | 0.30 | 93 | 1010.4 |
| 20260509214601 | 44 | 155 | 0.0 | 2.6 | 0.00 | 0.30 | 0.30 | 93 | 1010.4 |
| 20260509213052 | 44 | 155 | 0.0 | 0.0 | 0.00 | 0.30 | 0.30 | 93 | 1010.6 |
| 20260509211551 | 44 | 156 | 0.0 | 0.0 | 0.00 | 0.30 | 0.30 | 93 | 1010.7 |
| 20260509210051 | 44 | 172 | 0.0 | 0.0 | 0.01 | 0.30 | 0.30 | 93 | 1010.7 |
| 20260509204549 | 44 | 172 | 0.0 | 0.0 | 0.01 | 0.30 | 0.30 | 93 | 1010.9 |
| 20260509203048 | 44 | 172 | 0.0 | 0.0 | 0.02 | 0.30 | 0.30 | 93 | 1010.9 |
| 20260509201548 | 45 | 144 | 0.0 | 0.0 | 0.02 | 0.28 | 0.28 | 93 | 1011.0 |
| 20260509200054 | 45 | 140 | 0.0 | 0.0 | 0.03 | 0.28 | 0.28 | 93 | 1010.9 |
| 20260509194551 | 44 | 140 | 0.0 | 0.0 | 0.03 | 0.28 | 0.28 | 93 | 1010.9 |
| 20260509193044 | 44 | 141 | 0.0 | 0.0 | 0.03 | 0.28 | 0.28 | 93 | 1011.1 |
| 20260509191542 | 44 | 109 | 0.0 | 0.0 | 0.03 | 0.27 | 0.27 | 93 | 1011.3 |
| 20260509190040 | 44 | 143 | 0.0 | 3.5 | 0.04 | 0.26 | 0.26 | 93 | 1011.4 |
| 20260509184541 | 44 | 148 | 0.9 | 5.2 | 0.06 | 0.26 | 0.26 | 93 | 1011.5 |
| 20260509183057 | 44 | 154 | 0.9 | 8.7 | 0.06 | 0.25 | 0.25 | 93 | 1011.4 |
| 20260509181538 | 44 | 137 | 1.7 | 7.0 | 0.07 | 0.24 | 0.24 | 93 | 1011.4 |
| 20260509180037 | 43 | 146 | 0.0 | 6.1 | 0.06 | 0.22 | 0.22 | 93 | 1011.4 |
| 20260509174546 | 44 | 136 | 1.7 | 6.1 | 0.05 | 0.20 | 0.20 | 93 | 1011.7 |
| 20260509173036 | 44 | 175 | 1.7 | 8.7 | 0.06 | 0.19 | 0.19 | 93 | 1011.8 |
| 20260509171540 | 44 | 163 | 0.0 | 4.3 | 0.06 | 0.17 | 0.17 | 93 | 1012.0 |
| 20260509170033 | 44 | 200 | 0.0 | 0.0 | 0.06 | 0.16 | 0.16 | 93 | 1012.1 |
| 20260509164530 | 44 | 200 | 0.0 | 0.0 | 0.07 | 0.15 | 0.15 | 93 | 1012.2 |
| 20260509163042 | 44 | 200 | 0.0 | 3.5 | 0.06 | 0.13 | 0.13 | 93 | 1012.5 |
| 20260509161539 | 43 | 186 | 0.0 | 6.1 | 0.05 | 0.11 | 0.11 | 92 | 1012.6 |
| 20260509160027 | 44 | 178 | 0.9 | 3.5 | 0.06 | 0.10 | 0.10 | 92 | 1012.9 |
| 20260509154526 | 44 | 98 | 0.0 | 3.5 | 0.05 | 0.08 | 0.08 | 92 | 1013.1 |
| 20260509153042 | 43 | 140 | 0.0 | 2.6 | 0.05 | 0.07 | 0.07 | 92 | 1013.2 |
| 20260509151525 | 43 | 162 | 0.0 | 0.0 | 0.05 | 0.06 | 0.06 | 91 | 1013.3 |
| 20260509150036 | 43 | 177 | 0.0 | 0.0 | 0.04 | 0.04 | 0.04 | 91 | 1013.3 |
| 20260509144523 | 43 | 204 | 0.0 | 0.0 | 0.03 | 0.03 | 0.03 | 90 | 1013.2 |
| 20260509143024 | 43 | 157 | 0.0 | 6.1 | 0.02 | 0.02 | 0.02 | 88 | 1013.1 |
| 20260509141523 | 44 | 187 | 0.0 | 3.5 | 0.01 | 0.01 | 0.01 | 87 | 1013.2 |
| 20260509140022 | 44 | 163 | 0.0 | 4.3 | 0.00 | 0.00 | 0.00 | 85 | 1013.0 |
| 20260509134518 | 43 | 184 | 0.0 | 0.0 | 0.00 | 0.00 | 0.00 | 82 | 1013.0 |
| 20260509133018 | 43 | 195 | 0.0 | 0.0 | 0.00 | 0.00 | 0.00 | 79 | 1013.1 |
| 20260509131522 | 43 | 195 | 0.0 | 0.0 | 0.00 | 0.00 | 0.00 | 81 | 1013.1 |
| 20260509130012 | 42 | 195 | 0.0 | 0.0 | 0.00 | 0.00 | 0.00 | 85 | 1013.0 |
| 20260509124510 | 40 | 195 | 0.0 | 0.0 | 0.00 | 0.00 | 0.00 | 89 | 1013.1 |
| 20260509123006 | 39 | 195 | 0.0 | 0.0 | 0.00 | 0.00 | 0.00 | 93 | 1013.1 |
| 20260509121502 | 37 | 195 | 0.0 | 0.0 | 0.00 | 0.00 | 0.00 | 94 | 1013.3 |
| 20260509114559 | 35 | 195 | 0.0 | 0.0 | 0.00 | 0.00 | 0.00 | 94 | 1013.5 |
| 20260509113058 | 34 | 195 | 0.0 | 0.0 | 0.00 | 0.00 | 0.00 | 94 | 1013.3 |
| 20260509111553 | 33 | 36 | 0.0 | 0.0 | 0.00 | 0.00 | 0.00 | 93 | 1013.4 |
| 20260509110050 | 33 | 302 | 0.0 | 0.0 | 0.00 | 0.00 | 0.00 | 93 | 1013.7 |
| 20260509104548 | 32 | 302 | 0.0 | 0.0 | 0.00 | 0.00 | 0.00 | 93 | 1013.5 |
| 20260509103050 | 32 | 302 | 0.0 | 0.0 | 0.00 | 0.00 | 0.00 | 93 | 1013.3 |
| 20260509101543 | 31 | 218 | 0.0 | 0.0 | 0.00 | 0.00 | 0.00 | 93 | 1013.5 |
| 20260509100049 | 31 | 218 | 0.0 | 0.0 | 0.00 | 0.00 | 0.00 | 93 | 1013.6 |
| 20260509094538 | 31 | 217 | 0.0 | 0.0 | 0.00 | 0.00 | 0.00 | 93 | 1013.5 |
| 20260509093042 | 30 | 218 | 0.0 | 0.0 | 0.00 | 0.00 | 0.00 | 93 | 1013.3 |
| 20260509091538 | 30 | 218 | 0.0 | 0.0 | 0.00 | 0.00 | 0.00 | 93 | 1013.2 |
| 20260509090042 | 30 | 217 | 0.0 | 0.0 | 0.00 | 0.00 | 0.00 | 92 | 1013.2 |
| 20260509084535 | 30 | 218 | 0.0 | 0.0 | 0.00 | 0.00 | 0.00 | 92 | 1013.2 |
| 20260509083035 | 30 | 218 | 0.0 | 0.0 | 0.00 | 0.00 | 0.00 | 92 | 1012.9 |
| 20260509081533 | 30 | 218 | 0.0 | 0.0 | 0.00 | 0.00 | 0.00 | 92 | 1012.9 |
| 20260509080031 | 30 | 218 | 0.0 | 0.0 | 0.00 | 0.00 | 0.00 | 91 | 1012.9 |
| 20260509074531 | 30 | 218 | 0.0 | 0.0 | 0.00 | 0.00 | 0.00 | 91 | 1012.7 |
| 20260509073029 | 30 | 218 | 0.0 | 0.0 | 0.00 | 0.00 | 0.00 | 91 | 1012.8 |
| 20260509071527 | 31 | 218 | 0.0 | 0.0 | 0.00 | 0.00 | 0.00 | 90 | 1012.7 |
| 20260509070027 | 31 | 218 | 0.0 | 0.0 | 0.00 | 0.00 | 0.00 | 90 | 1012.7 |
| 20260509064529 | 31 | 218 | 0.0 | 0.0 | 0.00 | 0.00 | 0.00 | 90 | 1012.9 |
| 20260509063027 | 32 | 218 | 0.0 | 0.0 | 0.00 | 0.00 | 0.00 | 90 | 1013.2 |
| 20260509061527 | 32 | 218 | 0.0 | 0.0 | 0.00 | 0.00 | 0.00 | 89 | 1013.3 |
| 20260509060030 | 32 | 218 | 0.0 | 0.0 | 0.00 | 0.00 | 0.00 | 88 | 1013.4 |
| 20260509054518 | 33 | 217 | 0.0 | 0.0 | 0.00 | 0.00 | 0.00 | 88 | 1013.5 |
| 20260509053016 | 33 | 218 | 0.0 | 0.0 | 0.00 | 0.00 | 0.00 | 87 | 1013.4 |
| 20260509051513 | 34 | 217 | 0.0 | 0.0 | 0.00 | 0.00 | 0.00 | 87 | 1013.3 |
| 20260509050033 | 34 | 217 | 0.0 | 0.0 | 0.00 | 0.00 | 0.00 | 87 | 1013.1 |
| 20260509044510 | 34 | 217 | 0.0 | 0.0 | 0.00 | 0.00 | 0.00 | 86 | 1013.0 |
| 20260509043009 | 35 | 217 | 0.0 | 0.0 | 0.00 | 0.00 | 0.00 | 85 | 1013.0 |
| 20260509041505 | 35 | 217 | 0.0 | 0.0 | 0.00 | 0.00 | 0.00 | 85 | 1012.8 |
| 20260509040003 | 36 | 217 | 0.0 | 0.0 | 0.00 | 0.00 | 0.00 | 84 | 1012.6 |
| 20260509034602 | 36 | 217 | 0.0 | 0.0 | 0.00 | 0.00 | 0.00 | 84 | 1012.7 |
| 20260509033004 | 36 | 217 | 0.0 | 0.0 | 0.00 | 0.00 | 0.00 | 83 | 1012.8 |
| 20260509031623 | 37 | 217 | 0.0 | 0.0 | 0.00 | 0.00 | 0.00 | 82 | 1012.7 |
| 20260509024557 | 38 | 217 | 0.0 | 0.0 | 0.00 | 0.00 | 0.00 | 80 | 1012.4 |